sat.trackr.live / text

‹ back to catalog

STARLINK-3343

NORAD 50822 · 2022-001V

PAYLOAD ACTIVE UNKNOWN

§ Identity

Operator
Country
US
Launch date
2022-01-06
Launch site
AFETR
Launch vehicle
Mass (kg)
RCS (m²)

Purposes: comms

External: N2YO · Heavens-Above · Gunter

§ Orbital elements

Epoch: 2026-05-25T02:49:55.988832Z

Period
95.44 min
Inclination
53.2137°
Eccentricity
0.0001101
Mean motion
15.08836821 rev/d
Perigee alt
539.0 km
Apogee alt
540.5 km
Semi-major
6,917.9 km
B*
6.3384e-6
RAAN
186.0213°
Arg perigee
76.4710°
Mean anomaly
283.6405°
Rev number
24,194

§ Raw data

STARLINK-33431 50822U 22001V   26145.11800913 -.00000187  00000+0  63384-5 0  99982 50822  53.2137 186.0213 0001101  76.4710 283.6405 15.08836821241949

JSON: /api/v1/satellites/50822 · /tle

For live sub-satellite position, see the globe view (requires WebGL).

§ Visibility from observer

Set your observer location to see the next 7 days of passes ≥ 10°. The values pass through the URL so the page stays shareable.

No JS? Fill the form by hand. The geolocation button needs JavaScript.